[[{"header":{"parameterUnit":"m.s-1","parameterCategory":1,"la1":30.2991,"la2":30.254,"lo1":-89.0895,"lo2":-89.0444,"dy":0.0017,"dx":0.0017,"nx":28,"ny":28,"refTime":"2025-09-06T21:00:00:Z","depth":0,"parameterNumber":2,"parameterNumberName":"U-component_of_WINDS"},"data":[0,0,0,0,0,0,0,0,0,0,0,0,0,0,0,0,0,0,0,0,0,0,0,0,0,0,0,0,0,0,0,0,0,0,0,0,0,0,0,0,0,0,0,0,0,0,0,0,0,0,0,0,0,0,0,0,0,0,-1.1619,-1.1618,0,-1.1583,-1.1583,-1.1582,-1.1546,-1.1546,-1.1545,-1.1545,-1.1509,-1.1508,-1.1508,0,0,0,0,0,0,0,0,0,0,0,0,0,-1.1655,-1.1654,-1.1619,-1.1618,-1.1618,-1.1583,-1.1583,-1.1582,-1.1547,-1.1546,-1.1545,-1.1545,-1.1509,-1.1508,-1.1507,0,0,0,0,0,0,0,0,0,0,0,0,0,-1.1631,-1.1654,-1.1619,-1.1596,-1.1593,-1.1583,-1.1583,-1.1582,-1.1547,-1.1546,-1.1545,-1.1544,-1.1509,-1.1508,-1.1507,-1.1517,0,0,-1.1505,-1.1505,0,0,0,0,0,0,0,0,-1.1633,-1.163,-1.16,-1.1597,-1.1595,-1.1569,-1.1582,-1.156,-1.1547,-1.1564,-1.1545,-1.1544,-1.1529,-1.1527,-1.1522,-1.1516,-1.1514,-1.1505,-1.1505,-1.1504,-1.1504,0,0,0,0,0,0,0,-1.1634,-1.1631,-1.1605,-1.1599,-1.1596,-1.1587,-1.1583,-1.1578,-1.1551,-1.1563,-1.156,-1.1556,-1.1528,-1.1522,-1.152,-1.1513,-1.1505,-1.1504,-1.1504,-1.1504,-1.1513,-1.1514,0,0,0,0,0,0,-1.164,-1.1633,-1.1606,-1.1604,-1.1612,-1.1587,-1.1582,-1.1578,-1.1551,-1.1547,-1.1557,-1.1555,-1.1524,-1.1521,-1.1519,-1.1528,-1.1504,-1.1503,-1.1503,-1.1512,-1.1513,-1.1514,0,0,0,0,0,0,-1.164,-1.1637,-1.1607,-1.1618,-1.1613,-1.1587,-1.1582,-1.1577,-1.1572,-1.1547,-1.1542,-1.1557,-1.1523,-1.152,-1.1518,-1.1527,-1.1503,-1.1502,-1.1511,-1.1512,-1.1513,-1.1548,0,0,0,0,0,0,-1.1642,-1.1638,-1.1642,-1.1618,-1.1613,-1.1607,-1.1583,-1.1577,-1.1571,-1.1568,-1.1545,-1.1541,-1.1523,-1.1519,-1.1517,-1.1525,-1.1502,-1.151,-1.1512,-1.1513,-1.1545,-1.155,-1.1553,0,0,0,0,0,-1.1643,-1.1653,-1.1642,-1.1639,-1.1617,-1.1608,-1.1605,-1.1583,-1.1572,-1.1575,-1.1559,-1.1542,-1.1526,-1.1519,-1.1517,-1.1525,-1.151,-1.1511,-1.1513,-1.1544,-1.1549,-1.1553,0,0,0,0,0,0,-1.1679,-1.1649,-1.1637,-1.164,-1.1626,-1.1602,-1.1605,-1.1589,-1.1579,-1.1577,-1.1551,-1.1546,-1.1547,-1.1535,-1.1528,-1.1532,-1.1515,-1.1517,-1.154,-1.1544,-1.1548,-1.1551,-1.1501,0,0,0,0,0,-1.1687,-1.1682,-1.1656,-1.1661,-1.1655,-1.1631,-1.1627,-1.1611,-1.1597,-1.1591,-1.1574,-1.1561,-1.1552,-1.1548,-1.1539,-1.1544,-1.1538,-1.1548,-1.1551,-1.1555,-1.1556,-1.1557,-1.1561,-1.1519,-1.1519,-1.1519,0,0,-1.1703,-1.1687,-1.1685,-1.1668,-1.1656,-1.1651,-1.1627,-1.1623,-1.1619,-1.159,-1.1587,-1.1574,-1.1557,-1.1558,-1.1558,-1.1549,-1.1566,-1.1557,-1.156,-1.1559,-1.1559,-1.1563,-1.1567,-1.152,-1.152,-1.152,0,0,-1.1731,-1.1719,-1.1721,-1.1709,-1.1691,-1.1675,-1.1676,-1.1653,-1.1643,-1.164,-1.1618,-1.1613,-1.1599,-1.1588,-1.158,-1.1603,-1.1587,-1.1601,-1.1621,-1.1623,-1.1626,-1.1629,-1.1637,-1.164,-1.1602,-1.1603,-1.1603,0,-1.1754,-1.1747,-1.1724,-1.1721,-1.1714,-1.1687,-1.1689,-1.1679,-1.1659,-1.1654,-1.1644,-1.1627,-1.1613,-1.1611,-1.1617,-1.1611,-1.1611,-1.1604,-1.1627,-1.163,-1.1632,-1.1639,-1.1642,-1.1604,-1.1604,-1.1604,-1.1604,0,-1.1776,-1.1771,-1.1775,-1.1756,-1.1749,-1.1749,-1.1725,-1.1721,-1.1706,-1.1691,-1.1687,-1.167,-1.1657,-1.1656,-1.1641,-1.1651,-1.1646,-1.1632,-1.1615,-1.1638,-1.1645,-1.1647,-1.1607,-1.1606,-1.1606,-1.1605,0,0,-1.1826,-1.1794,-1.1796,-1.1787,-1.1764,-1.176,-1.1758,-1.1745,-1.1742,-1.1729,-1.1727,-1.1716,-1.1702,-1.1694,-1.1678,-1.1679,-1.1698,-1.1665,-1.1664,-1.1671,-1.1707,-1.1718,-1.1722,-1.1687,-1.1687,-1.1687,-1.1709,0,-1.185,-1.1845,-1.1824,-1.1825,-1.182,-1.1794,-1.1793,-1.1779,-1.1765,-1.1758,-1.1742,-1.1734,-1.1718,-1.1712,-1.1712,-1.1696,-1.1705,-1.1694,-1.1684,-1.1684,-1.1689,-1.1725,-1.1736,-1.1757,-1.1711,-1.1711,-1.1712,0,-1.1878,-1.1866,-1.1867,-1.1844,-1.1841,-1.184,-1.1827,-1.1821,-1.1804,-1.1793,-1.1784,-1.1766,-1.1762,-1.1745,-1.174,-1.1733,-1.1727,-1.1718,-1.1719,-1.1717,-1.1699,-1.1724,-1.1763,-1.1767,-1.1715,-1.1715,-1.1715,0,-1.1914,-1.1898,-1.1897,-1.189,-1.1864,-1.1863,-1.1852,-1.1835,-1.1828,-1.1816,-1.1812,-1.1799,-1.1793,-1.1783,-1.1762,-1.1752,-1.1759,-1.1741,-1.175,-1.175,-1.1752,-1.1753,-1.1791,-1.1749,-1.1749,-1.1749,-1.1749,0,-1.1943,-1.1944,-1.1913,-1.1912,-1.1912,-1.1888,-1.1889,-1.1876,-1.186,-1.1856,-1.1833,-1.1829,-1.1802,-1.1795,-1.1778,-1.1776,-1.1773,-1.1764,-1.176,-1.1766,-1.1767,-1.1763,-1.1761,-1.175,-1.175,-1.175,-1.1749,0,-1.1983,-1.1962,-1.1959,-1.1934,-1.1928,-1.1929,-1.1908,-1.1906,-1.189,-1.1885,-1.1882,-1.1857,-1.1848,-1.1826,-1.1811,-1.1799,-1.1801,-1.1793,-1.1807,-1.1804,-1.1814,-1.1814,-1.1851,-1.1855,-1.1811,-1.1811,-1.1812,0,-1.2004,-1.2004,-1.1979,-1.1975,-1.1965,-1.1958,-1.1951,-1.1926,-1.192,-1.1901,-1.1901,-1.189,-1.188,-1.1866,-1.1846,-1.1834,-1.1826,-1.184,-1.1824,-1.183,-1.1826,-1.1826,-1.1826,-1.1843,-1.1844,-1.1845,-1.1845,0,-1.2041,-1.2031,-1.2022,-1.2009,-1.2001,-1.199,-1.1978,-1.1975,-1.1948,-1.1942,-1.1932,-1.1924,-1.1908,-1.1897,-1.1882,-1.1871,-1.1853,-1.185,-1.1851,-1.1858,-1.1866,-1.1862,-1.1817,-1.1849,-1.1849,-1.1849,-1.1848,-1.1848,-1.2072,-1.2071,-1.2054,-1.2044,-1.2032,-1.2021,-1.2018,-1.2001,-1.1992,-1.1978,-1.1964,-1.1955,-1.1938,-1.1916,-1.1905,-1.1898,-1.1889,-1.1891,-1.1892,-1.1893,-1.1896,-1.1867,-1.1895,-1.1895,-1.1895,-1.1895,-1.1895,0,-1.2109,-1.2096,-1.2087,-1.2071,-1.2063,-1.2047,-1.2032,-1.2027,-1.202,-1.2005,-1.1996,-1.1984,-1.1973,-1.1952,-1.194,-1.1938,-1.1929,-1.1935,-1.1935,-1.1933,-1.1904,-1.1904,-1.1942,-1.1942,-1.1942,-1.1942,-1.1942,-1.1942,-1.2127,-1.2124,-1.2112,-1.2103,-1.209,-1.2081,-1.2074,-1.2063,-1.2051,-1.2039,-1.203,-1.2017,-1.2,-1.1985,-1.1974,-1.1968,-1.1965,-1.1973,-1.1965,-1.1939,-1.1935,-1.193,-1.193,-1.1973,-1.1973,-1.1994,-1.1994,-1.1994]},{"header":{"parameterUnit":"m.s-1","parameterCategory":1,"la1":30.2991,"la2":30.254,"lo1":-89.0895,"lo2":-89.0444,"dy":0.0017,"dx":0.0017,"nx":28,"ny":28,"refTime":"2025-09-06T21:00:00:Z","depth":0,"parameterNumber":3,"parameterNumberName":"V-component_of_WINDS"},"data":[0,0,0,0,0,0,0,0,0,0,0,0,0,0,0,0,0,0,0,0,0,0,0,0,0,0,0,0,0,0,0,0,0,0,0,0,0,0,0,0,0,0,0,0,0,0,0,0,0,0,0,0,0,0,0,0,0,0,-3.7031,-3.7031,0,-3.7034,-3.7034,-3.7034,-3.702,-3.702,-3.702,-3.7019,-3.7018,-3.7018,-3.7018,0,0,0,0,0,0,0,0,0,0,0,0,0,-3.7011,-3.7012,-3.7031,-3.7031,-3.7031,-3.7034,-3.7034,-3.7034,-3.7021,-3.702,-3.702,-3.7019,-3.7017,-3.7018,-3.7018,0,0,0,0,0,0,0,0,0,0,0,0,0,-3.7018,-3.7012,-3.7031,-3.7025,-3.7024,-3.7034,-3.7034,-3.7034,-3.7021,-3.702,-3.7019,-3.7019,-3.7017,-3.7018,-3.7018,-3.7032,0,0,-3.702,-3.702,0,0,0,0,0,0,0,0,-3.7017,-3.7018,-3.7026,-3.7025,-3.7025,-3.7026,-3.7026,-3.7033,-3.7021,-3.7022,-3.7019,-3.7019,-3.7021,-3.7021,-3.7022,-3.7032,-3.7032,-3.702,-3.702,-3.702,-3.702,0,0,0,0,0,0,0,-3.7017,-3.7018,-3.7032,-3.7026,-3.7025,-3.7021,-3.7021,-3.7027,-3.7024,-3.7022,-3.7021,-3.7022,-3.702,-3.7022,-3.7022,-3.7032,-3.702,-3.702,-3.702,-3.702,-3.7056,-3.7056,0,0,0,0,0,0,-3.7018,-3.7018,-3.7032,-3.7032,-3.702,-3.7022,-3.7022,-3.7026,-3.7024,-3.7023,-3.7022,-3.7021,-3.7021,-3.7022,-3.7022,-3.704,-3.702,-3.7021,-3.7021,-3.7055,-3.7056,-3.7057,0,0,0,0,0,0,-3.7017,-3.7019,-3.7032,-3.7025,-3.7026,-3.7023,-3.7027,-3.7027,-3.7028,-3.7024,-3.7023,-3.7025,-3.7021,-3.7021,-3.7031,-3.704,-3.7021,-3.7021,-3.7054,-3.7055,-3.7056,-3.7075,0,0,0,0,0,0,-3.7017,-3.7019,-3.7025,-3.7025,-3.7026,-3.7041,-3.7028,-3.7027,-3.703,-3.7028,-3.7027,-3.7026,-3.7021,-3.703,-3.7031,-3.704,-3.7021,-3.7053,-3.7055,-3.7056,-3.7074,-3.7077,-3.7079,0,0,0,0,0,-3.7016,-3.7028,-3.7025,-3.7027,-3.7034,-3.7041,-3.7042,-3.7037,-3.703,-3.7036,-3.7034,-3.7026,-3.7039,-3.7031,-3.7032,-3.7041,-3.7053,-3.7054,-3.7056,-3.7073,-3.7076,-3.7079,0,0,0,0,0,0,-3.7026,-3.7028,-3.7024,-3.7037,-3.704,-3.7039,-3.7046,-3.7041,-3.7044,-3.7042,-3.7035,-3.7035,-3.7046,-3.7044,-3.7036,-3.7056,-3.7044,-3.7046,-3.7057,-3.706,-3.7063,-3.7063,-3.7022,0,0,0,0,0,-3.7031,-3.7038,-3.7038,-3.705,-3.7051,-3.7049,-3.7052,-3.7048,-3.705,-3.705,-3.7049,-3.7049,-3.7054,-3.7057,-3.706,-3.7074,-3.7074,-3.7081,-3.7083,-3.7086,-3.7087,-3.7097,-3.71,-3.7062,-3.7062,-3.7062,0,0,-3.7038,-3.704,-3.7045,-3.7052,-3.7053,-3.7061,-3.7049,-3.7057,-3.7063,-3.7051,-3.7061,-3.706,-3.706,-3.7072,-3.7077,-3.7071,-3.7098,-3.7088,-3.7089,-3.709,-3.7099,-3.7102,-3.7105,-3.7063,-3.7062,-3.7062,0,0,-3.7057,-3.7059,-3.707,-3.7072,-3.7076,-3.7074,-3.7077,-3.7078,-3.7078,-3.7088,-3.708,-3.7086,-3.7093,-3.7095,-3.7097,-3.7119,-3.7112,-3.712,-3.7135,-3.7144,-3.7147,-3.715,-3.716,-3.7163,-3.7122,-3.7122,-3.7122,0,-3.7066,-3.7078,-3.7075,-3.7085,-3.7089,-3.7081,-3.7092,-3.7094,-3.7098,-3.71,-3.7094,-3.7105,-3.7105,-3.7118,-3.7124,-3.7125,-3.7129,-3.7121,-3.7147,-3.715,-3.7152,-3.7162,-3.7165,-3.7123,-3.7123,-3.7123,-3.7123,0,-3.709,-3.7099,-3.7107,-3.7114,-3.7119,-3.7128,-3.7127,-3.7132,-3.7129,-3.7128,-3.7139,-3.7139,-3.7144,-3.7146,-3.7142,-3.716,-3.7156,-3.7149,-3.7137,-3.7157,-3.7166,-3.7169,-3.7125,-3.7124,-3.7124,-3.7124,0,0,-3.7113,-3.7121,-3.7124,-3.7129,-3.7133,-3.714,-3.715,-3.7157,-3.7162,-3.7165,-3.7174,-3.7182,-3.7176,-3.7178,-3.7174,-3.7182,-3.7202,-3.7173,-3.7173,-3.718,-3.7224,-3.7231,-3.7235,-3.7198,-3.7198,-3.7199,-3.7225,0,-3.7133,-3.7153,-3.7152,-3.717,-3.7179,-3.7173,-3.7183,-3.7186,-3.7186,-3.7193,-3.7193,-3.7199,-3.719,-3.7192,-3.7199,-3.7198,-3.7211,-3.7196,-3.7206,-3.7207,-3.7208,-3.724,-3.7246,-3.7271,-3.7228,-3.7229,-3.7229,0,-3.7158,-3.7166,-3.7186,-3.7193,-3.7196,-3.7205,-3.7212,-3.7219,-3.7224,-3.7223,-3.7227,-3.7223,-3.7233,-3.7221,-3.7236,-3.7226,-3.723,-3.7231,-3.7231,-3.7233,-3.722,-3.7243,-3.7278,-3.7282,-3.7234,-3.7234,-3.7233,0,-3.7176,-3.7191,-3.7205,-3.7209,-3.7216,-3.7223,-3.7226,-3.723,-3.7235,-3.7241,-3.7245,-3.7251,-3.7255,-3.726,-3.7258,-3.7249,-3.7274,-3.7261,-3.7274,-3.7274,-3.7279,-3.7279,-3.7317,-3.728,-3.728,-3.728,-3.728,0,-3.7198,-3.7211,-3.7214,-3.7223,-3.7238,-3.7236,-3.7251,-3.7253,-3.7257,-3.7266,-3.7261,-3.7269,-3.7265,-3.7273,-3.7271,-3.7285,-3.7286,-3.7286,-3.7285,-3.7287,-3.7287,-3.729,-3.7289,-3.7281,-3.7281,-3.7281,-3.728,0,-3.722,-3.7222,-3.7238,-3.7245,-3.7247,-3.7258,-3.7264,-3.7272,-3.7273,-3.7285,-3.7288,-3.7288,-3.7298,-3.7296,-3.7306,-3.7305,-3.7323,-3.7319,-3.7322,-3.7322,-3.7335,-3.7335,-3.7377,-3.7383,-3.7341,-3.7342,-3.7342,0,-3.7234,-3.7245,-3.7254,-3.7261,-3.7266,-3.7277,-3.7283,-3.7283,-3.7289,-3.7297,-3.7305,-3.7315,-3.7323,-3.7339,-3.734,-3.7348,-3.7345,-3.736,-3.7346,-3.7349,-3.7347,-3.7347,-3.7349,-3.7362,-3.7363,-3.7363,-3.7363,0,-3.7261,-3.7263,-3.7273,-3.7285,-3.7294,-3.7302,-3.731,-3.7315,-3.7316,-3.7324,-3.7335,-3.7342,-3.7354,-3.7364,-3.7372,-3.7374,-3.7369,-3.7368,-3.7372,-3.7374,-3.7376,-3.7377,-3.7331,-3.7367,-3.7366,-3.7366,-3.7366,-3.7366,-3.728,-3.7291,-3.73,-3.7312,-3.7319,-3.7328,-3.7337,-3.7341,-3.7351,-3.7363,-3.7361,-3.7375,-3.7381,-3.7392,-3.7395,-3.7405,-3.74,-3.7405,-3.7406,-3.7408,-3.7411,-3.7374,-3.7406,-3.7406,-3.7406,-3.7406,-3.7406,0,-3.7308,-3.7315,-3.7326,-3.734,-3.735,-3.7347,-3.7356,-3.7364,-3.7377,-3.7384,-3.7394,-3.7408,-3.7419,-3.7422,-3.7432,-3.7439,-3.7438,-3.7442,-3.7442,-3.7443,-3.7414,-3.741,-3.7444,-3.7444,-3.7444,-3.7444,-3.7444,-3.7444,-3.7323,-3.7342,-3.7345,-3.7367,-3.7373,-3.7388,-3.7394,-3.7402,-3.7408,-3.7425,-3.7435,-3.7438,-3.7444,-3.7455,-3.7465,-3.7466,-3.747,-3.7476,-3.7476,-3.7449,-3.7445,-3.7441,-3.7438,-3.7477,-3.7477,-3.7505,-3.7505,-3.7505]}]]